XW-3 (CAS-9) (50466 NORAD) Tracking and Keplerian Element Data

This shows tracking and keplerian element data for the satellite.

Feedback or suggestion? Click here.




ElementValue
Catalog50466
NameXW-3 (CAS-9)
Epoch Orbit2092
Epoch Day140.69705345
Epoch Year2022
RAAN217.9634
Inclination98.5807
Eccentricity0.0003873
Argument of Perigee216.4214
Mean Anonmoly143.671
Mean Motion14.38488127
Decay Rate4.46E-06
L11 50466U 21131B 22140.69705345 .00000446 00000+0 16057-3 0 9992
L22 50466 98.5807 217.9634 0003873 216.4214 143.6710 14.38488127 20924

Live tracking and technical data element details for XW-3 (CAS-9) (NORAD 50466). XW-3 (CAS-9) can be tracked NOW for your location showing map with azimuth and elevation plus other details from your city location.

Track the satellite on the map from your city or location and see movement details for azimuth, elevation, latitude, longitude, range, height, and movement on the map or in text.







IsCatalogInMostPopularTable: catalog: 50466, numindb: 26
Update: records affected: 1



GetName: 50466 XW-3 (CAS-9)

Hit Count: updated at: Mon, 23 May 2022 20:52:48 GMT